Location: Unspecified
(0.0000°N, 0.0000°E)
Time: 02:34:41
(UTC+00:00)

Tiros 1 - Visible Passes

Search period start: 29 July 2014 00:00
Search period end: 08 August 2014 00:00
Orbit: 634 x 667 km, 48.4° (Epoch: 28 July)

Date Brightness Start Highest point End Pass type
(mag) Time Alt. Az. Time Alt. Az. Time Alt. Az.
29 Jul 9.4 03:38:07 21° E 03:38:07 21° E 03:40:07 10° ENE visible
29 Jul 8.6 05:15:53 15° W 05:18:13 21° NW 05:21:44 10° N visible
30 Jul 8.1 04:04:43 43° NNE 04:04:43 43° NNE 04:07:52 10° NE visible
31 Jul 8.7 04:31:16 22° NNW 04:31:16 22° NNW 04:34:00 10° N visible
01 Aug 10.2 03:19:59 10° NE 03:19:59 10° NE 03:20:01 10° NE visible
